Theta_e
319 320 320 320 319 318 318 318 317 317 317 317 317 317 316 316 315 315 315 315 315 315 314 313 313 314 306 297 299 309 333 324 320 316 302 294 291 292 290 291 291 287 291 293 295 294 294
320 320 320 320 319 319 318 318 318 317 317 317 316 316 317 315 315 315 315 314 314 314 314 313 313 314 304 293 307 314 321 317 317 308 299 294 293 295 293 292 291 294 294 294 294 294 293
321 321 321 320 319 319 319 318 317 317 316 315 315 315 316 314 314 314 315 314 314 314 313 312 313 310 303 300 312 311 317 313 309 305 299 298 298 297 295 292 295 295 292 294 294 292 293
321 321 321 320 320 320 319 319 318 317 316 316 315 314 314 314 314 314 314 314 314 314 313 313 315 308 295 309 310 309 312 308 307 306 302 302 300 295 293 295 296 291 290 286 292 293 294
321 321 321 320 320 319 319 318 318 316 316 316 315 313 313 313 313 313 314 314 313 313 315 315 307 303 296 313 310 312 310 308 306 305 304 306 299 294 295 290 288 288 283 285 290 293 292
321 321 321 320 319 318 317 317 316 316 316 315 314 313 313 313 313 313 313 313 311 313 312 311 309 298 301 302 310 313 310 311 306 304 301 301 297 290 288 288 282 283 284 286 287 293 293
321 321 320 319 319 318 316 316 315 315 315 315 314 313 312 312 313 312 310 303 302 301 303 298 300 300 303 309 312 309 310 308 305 301 292 294 289 287 290 291 291 290 288 287 291 295 292
319 319 319 319 318 316 315 315 314 314 314 314 314 315 313 312 312 312 309 299 302 303 296 304 305 304 308 309 304 305 309 300 298 293 294 291 288 294 294 293 292 290 288 288 292 294 292
318 318 317 316 316 315 315 315 314 315 314 313 314 314 313 312 312 305 300 302 308 306 295 300 305 305 305 307 303 305 304 298 295 292 292 290 294 296 294 292 291 290 288 289 289 293 292
316 316 316 315 314 314 314 313 313 313 313 314 314 312 312 312 303 300 299 307 307 305 290 295 300 305 307 306 301 310 303 301 297 292 294 293 297 296 293 292 292 287 294 294 292 288 283
315 315 315 314 314 314 313 312 312 313 313 313 313 312 312 312 305 299 303 304 304 301 282 301 301 310 307 301 301 302 305 301 295 295 294 292 294 293 292 294 295 292 296 293 291 287 285
315 315 315 314 314 314 313 313 313 312 312 312 311 311 311 308 304 304 306 305 302 291 284 299 302 300 300 301 301 300 300 303 301 295 294 295 298 296 295 298 299 299 294 290 288 285 280
314 314 313 313 313 313 312 312 312 312 312 311 310 310 308 308 298 302 302 301 289 285 300 298 295 298 297 296 299 297 295 294 291 287 287 293 293 296 298 295 299 295 288 281 279 279 280
312 312 312 312 312 311 311 311 312 312 312 311 309 308 307 306 306 305 301 296 284 294 297 304 300 296 294 296 296 297 293 290 293 291 287 285 285 295 301 298 294 292 289 283 277 278 281
310 311 311 310 311 310 310 310 311 311 311 309 308 301 298 300 306 304 298 288 289 295 302 297 299 293 292 296 295 294 292 292 294 293 288 286 288 299 301 301 299 293 289 293 287 286 281
308 308 308 307 307 308 309 309 310 311 311 309 303 298 297 304 307 302 296 292 295 303 304 300 292 295 292 293 295 293 291 296 294 295 295 291 286 295 298 299 298 294 296 287 286 280 278
307 307 306 306 306 306 306 308 308 310 310 307 296 293 301 307 305 298 290 292 297 304 305 300 296 294 294 293 295 294 296 298 300 297 296 293 289 289 294 292 290 291 289 289 288 283 280
305 306 306 306 306 306 307 307 308 309 308 305 298 288 304 306 296 294 291 297 301 302 305 301 299 297 295 295 292 292 295 297 301 300 294 294 290 286 289 293 296 292 290 289 284 283 280
305 306 306 307 307 308 308 308 308 309 309 304 294 292 302 305 291 291 296 299 303 301 301 299 297 298 297 294 289 293 296 299 300 299 296 295 287 283 286 288 292 290 292 292 290 291 286
305 306 306 307 308 307 307 308 309 309 309 305 295 288 295 299 301 296 294 294 297 302 300 300 299 300 297 294 293 292 294 298 299 301 303 298 287 285 282 284 288 287 290 292 289 282 284
306 306 306 307 307 308 309 308 309 308 309 305 294 291 297 289 295 295 295 295 294 295 299 300 296 296 293 290 290 290 292 293 297 299 296 294 288 287 287 290 290 289 290 291 290 290 286
305 306 306 306 308 309 309 309 308 308 308 301 293 296 298 296 297 295 295 294 295 295 295 294 294 295 294 291 290 289 290 290 289 293 290 294 283 285 284 289 290 288 290 291 291 292 291
305 305 306 306 307 307 308 309 309 308 308 299 300 300 298 293 293 293 294 294 295 296 297 298 295 292 290 292 294 293 293 292 291 289 288 289 289 287 282 288 288 284 288 290 290 291 290
305 305 305 306 306 307 308 309 310 310 309 303 300 297 294 289 292 292 294 295 294 295 294 296 294 292 295 298 295 292 290 291 290 290 291 289 290 286 282 283 278 287 294 294 290 290 290
305 305 305 305 305 306 307 309 310 310 310 304 303 299 295 288 292 292 294 294 295 294 292 294 296 296 297 294 287 284 284 285 288 289 288 290 287 286 282 279 285 289 293 291 289 287 291
305 305 305 305 305 306 307 309 310 309 309 306 303 304 300 292 289 295 292 293 291 290 290 293 298 298 295 290 287 280 278 285 287 288 292 290 290 286 284 280 277 286 296 298 294 284 293
304 305 305 305 305 305 306 308 309 309 309 305 300 304 301 293 297 296 291 290 293 291 288 291 293 293 293 286 282 279 280 287 283 287 286 286 287 284 284 282 283 292 297 298 285 284 292
303 304 305 305 305 305 306 307 307 309 309 307 302 304 298 294 297 298 298 293 292 291 286 289 290 290 289 284 285 285 283 289 289 291 289 287 286 284 286 283 280 297 297 290 291 294 294
302 302 303 305 305 305 305 306 306 308 308 309 301 303 304 298 297 299 300 301 298 297 292 290 289 290 290 285 288 288 284 288 288 278 295 287 290 287 287 283 292 296 296 296 295 293 291
Wind_Speed
13 14 14 14 14 13 14 13 13 13 14 15 16 17 19 20 20 20 19 18 17 17 17 14 14 10 4 2 12 5 10 15 7 6 7 6 6 5 5 5 6 4 6 6 10 8 9
14 14 15 14 14 13 13 13 14 14 14 14 17 17 18 19 19 20 20 20 18 17 15 13 11 3 3 5 4 2 9 10 6 6 6 6 8 6 4 4 5 7 7 7 5 7 6
16 16 15 14 13 13 14 14 16 16 17 18 18 18 18 19 20 20 18 18 18 18 15 12 10 5 5 16 7 7 7 6 5 6 5 4 3 3 4 2 4 4 5 7 4 1 5
15 15 15 14 13 13 14 15 15 17 18 18 18 19 19 20 21 21 19 18 20 20 14 10 9 5 10 5 3 2 8 3 5 5 0 3 4 1 2 4 4 3 4 4 6 2 2
15 15 14 14 13 13 13 14 15 17 18 18 19 20 19 20 20 21 19 20 20 9 4 7 5 5 11 5 4 7 8 5 6 4 1 1 4 4 1 2 4 7 2 3 9 2 3
15 16 15 14 13 12 12 13 13 15 16 17 19 20 20 21 21 19 17 17 10 5 6 5 2 3 6 4 4 5 6 6 3 6 3 4 2 3 3 4 3 2 2 3 5 4 1
15 15 14 14 14 13 13 14 14 14 17 17 19 20 22 22 21 17 12 4 1 2 5 11 8 5 4 6 3 4 7 8 2 1 4 4 3 5 8 6 5 2 2 5 10 9 3
13 12 13 14 14 13 13 14 16 18 19 19 19 19 21 22 23 21 1 3 5 1 9 16 12 8 4 3 4 3 9 6 6 5 4 3 5 7 5 5 5 5 5 9 9 5 6
12 13 13 13 13 13 14 15 16 16 16 19 18 17 21 23 24 2 2 7 3 4 4 6 7 6 6 9 7 6 12 7 5 6 5 6 5 5 5 3 4 6 6 7 9 6 2
12 13 14 14 13 12 14 18 18 20 19 19 18 21 21 21 2 3 5 2 6 4 4 7 5 6 6 6 4 7 8 7 3 10 6 6 5 6 4 6 7 6 12 11 6 4 5
13 14 15 14 15 16 16 19 19 20 20 18 20 20 16 7 9 5 3 5 2 2 5 2 3 3 5 9 5 5 6 4 8 7 7 6 3 4 4 7 8 10 3 8 4 5 2
14 15 16 16 16 17 16 19 20 20 20 21 22 20 14 6 3 11 9 10 1 4 8 3 5 6 5 3 2 3 4 4 4 4 2 8 2 3 6 5 5 1 3 7 6 3 2
13 15 17 17 17 17 17 17 19 18 20 22 21 22 15 7 7 4 3 2 3 5 5 4 5 6 6 6 5 4 6 7 6 5 5 3 5 4 5 3 1 4 5 2 3 2 6
15 17 17 17 17 17 17 17 18 19 19 24 22 28 11 9 12 7 4 5 6 5 6 3 2 5 8 6 6 8 7 6 4 3 3 6 2 6 3 4 6 2 6 6 5 4 3
18 17 17 18 17 17 18 17 18 17 17 25 27 3 4 5 9 8 4 4 9 7 5 3 4 3 4 4 5 5 9 9 8 9 7 5 3 1 2 1 3 1 3 2 6 3 3
19 18 19 20 21 19 18 19 19 19 17 24 8 6 6 4 13 4 4 7 7 5 2 3 4 1 5 4 5 6 9 4 5 9 5 5 2 2 2 1 3 5 5 2 3 4 4
20 20 19 20 20 20 20 20 19 19 15 17 2 6 3 6 5 2 5 7 6 7 4 6 5 3 1 2 3 3 4 4 3 2 6 6 4 3 1 3 6 2 3 5 4 4 6
19 19 19 20 18 19 18 18 18 18 13 4 2 4 2 4 2 2 4 6 5 7 4 5 3 5 5 1 2 2 4 1 5 3 6 1 5 4 6 1 3 3 5 5 5 5 2
20 20 20 19 19 19 18 17 17 17 8 2 5 6 4 3 4 3 4 5 5 4 4 6 4 3 4 3 2 1 3 2 7 3 6 4 1 3 5 6 3 3 4 5 6 4 4
20 20 20 20 19 18 18 14 14 15 8 0 3 6 5 1 3 4 3 6 5 3 2 3 2 4 6 4 4 4 2 2 5 3 5 6 3 6 7 5 4 2 3 4 6 5 5
19 19 19 19 20 18 18 15 11 10 6 1 2 5 1 4 3 6 4 4 4 2 3 2 2 1 6 5 2 2 1 3 3 8 3 3 5 3 3 2 1 3 5 6 7 6 6
20 20 19 19 19 18 20 21 12 9 2 2 3 2 4 4 6 6 4 4 3 4 3 4 6 4 3 4 4 7 4 1 2 5 3 3 3 2 2 2 6 6 7 8 8 10 10
18 19 19 19 19 18 19 20 13 10 5 2 2 3 1 4 4 3 3 5 6 5 5 2 9 6 4 4 4 3 3 3 3 3 1 2 5 3 4 3 4 5 9 9 5 5 9
18 18 19 19 19 18 19 20 16 12 8 2 1 1 2 3 2 2 7 4 8 5 4 3 2 5 3 5 4 4 3 3 2 5 3 3 5 3 1 2 5 4 4 3 4 2 4
18 19 19 19 19 20 20 20 19 3 4 1 1 2 2 3 2 5 6 1 1 5 4 3 5 3 5 4 3 3 2 0 5 5 6 3 4 3 2 3 5 1 3 4 4 4 4
19 19 19 19 18 20 20 18 14 2 4 2 2 2 2 2 4 2 2 2 1 4 3 3 4 3 5 3 3 3 4 2 3 4 4 5 4 4 3 2 4 4 1 2 3 4 7
21 19 18 19 19 19 18 19 16 9 6 3 3 3 1 3 4 2 1 1 1 1 1 2 3 1 2 3 2 3 3 2 3 5 5 5 3 9 4 3 7 4 4 1 3 4 4
20 20 18 18 18 18 17 17 17 14 10 3 3 3 3 3 4 3 2 2 1 1 2 2 2 2 2 2 3 1 1 2 2 2 5 4 6 4 5 5 7 2 2 4 3 3 5
19 20 20 19 17 17 17 16 16 15 14 4 2 1 3 3 4 2 5 4 4 5 4 2 2 2 3 3 0 2 0 1 1 1 2 4 4 4 6 5 3 2 2 3 3 5 4
Wind_Direction
328 330 331 333 332 329 326 329 324 326 325 326 330 332 333 329 324 323 322 320 317 316 315 314 309 312 334 235 249 304 114 160 146 141 164 147 147 145 173 178 140 212 240 209 223 205 220
317 320 322 325 322 318 318 322 322 321 320 320 327 327 326 328 324 321 319 318 316 312 306 302 292 295 239 233 225 284 133 140 163 148 171 146 183 193 150 175 175 202 235 259 251 234 218
316 317 318 316 311 311 312 319 326 323 324 326 326 325 326 324 323 320 317 314 310 304 295 284 267 185 258 244 146 69 128 167 170 163 155 224 185 134 141 269 233 246 283 326 276 300 242
309 310 308 308 306 306 308 314 317 321 323 321 321 323 324 324 321 320 319 314 309 310 292 252 230 180 243 254 245 227 158 194 174 213 93 224 172 138 179 281 354 336 57 7 296 19 294
308 309 308 309 309 307 308 308 312 321 320 319 320 321 321 321 321 320 319 314 317 317 283 174 134 188 265 314 233 201 165 162 155 162 193 58 127 210 210 106 12 11 250 244 312 209 99
310 311 312 315 317 313 309 312 318 315 315 315 318 319 321 320 320 321 316 305 299 292 113 133 150 278 263 221 209 192 164 146 139 135 164 194 179 127 32 83 222 244 272 285 254 275 14
312 314 320 322 317 318 319 318 314 312 316 316 318 317 318 318 318 317 322 343 64 211 224 201 190 230 276 294 181 192 142 115 146 207 180 194 140 196 201 198 182 192 250 267 270 258 250
315 320 316 315 320 320 316 315 320 320 317 317 314 308 316 319 319 320 241 220 237 175 296 227 235 267 281 54 297 179 125 134 145 186 143 23 248 217 208 172 195 220 243 265 284 269 170
325 314 318 320 316 315 321 323 318 316 313 313 305 308 319 321 318 57 245 239 318 356 268 278 189 204 201 152 210 222 151 150 147 167 169 178 235 127 173 235 217 235 199 247 216 337 268
323 319 318 315 312 310 320 321 319 318 314 310 309 319 325 328 5 326 243 231 282 182 351 267 233 255 147 171 234 191 173 143 145 182 167 222 226 224 227 242 176 261 212 233 240 126 231
319 316 316 319 314 313 315 325 319 316 313 309 311 318 318 330 294 269 277 9 334 102 332 210 172 122 149 163 161 217 176 81 173 172 141 231 195 146 208 224 158 231 218 196 187 155 152
321 322 322 315 313 313 311 316 319 319 316 316 312 311 313 297 238 245 307 329 71 37 251 240 134 159 143 219 178 111 131 92 147 157 181 212 205 188 216 235 221 294 79 44 44 92 64
327 324 321 320 318 318 316 312 316 313 313 313 310 305 293 255 230 178 197 128 32 193 311 200 184 162 185 179 193 130 153 177 167 135 213 193 219 230 189 223 315 96 67 342 344 352 219
336 329 325 321 318 315 311 310 315 312 309 316 314 306 266 208 211 243 1 82 213 236 250 274 189 143 181 161 211 173 144 186 255 115 123 171 194 183 174 179 186 160 153 158 210 207 251
328 319 316 318 316 315 312 314 311 310 308 319 316 269 241 251 174 151 136 174 201 206 256 312 334 158 206 186 161 143 181 200 200 165 179 149 257 271 89 57 134 160 178 178 105 19 63
322 322 323 322 320 322 321 319 316 319 316 329 318 311 268 145 161 141 117 236 217 210 16 22 197 213 193 185 161 163 170 188 202 185 164 214 168 243 261 134 54 152 152 110 343 171 242
327 326 324 323 323 322 321 320 318 317 316 324 338 322 296 142 155 76 192 220 245 258 178 184 217 201 266 131 153 223 183 25 1 50 135 136 129 249 159 172 179 114 123 82 118 126 178
322 319 319 319 316 319 316 317 313 313 318 344 320 306 32 154 151 196 200 189 230 235 178 229 168 168 185 92 202 175 168 115 358 285 153 283 133 179 205 2 321 164 175 141 147 223 221
323 322 317 313 309 311 308 309 311 315 334 322 308 271 293 182 233 238 271 251 223 251 221 184 137 82 34 122 196 130 97 30 353 172 171 203 18 84 343 352 351 201 177 135 115 92 202
320 319 318 317 315 314 313 307 306 317 315 274 311 308 305 260 295 289 268 253 227 177 167 57 130 83 67 83 315 154 134 11 355 35 84 98 131 160 187 185 162 174 154 153 127 135 198
319 317 317 317 319 317 322 307 289 298 299 215 207 263 255 314 304 320 283 290 304 196 104 105 80 111 150 151 124 161 89 0 33 349 57 117 177 163 209 208 178 217 231 208 197 176 192
321 321 319 317 317 327 324 322 289 274 217 174 255 268 340 282 291 299 309 274 227 263 347 194 145 132 93 148 191 188 138 203 209 355 48 13 164 113 299 214 220 244 242 240 212 213 232
317 318 322 322 325 328 325 322 300 289 236 216 238 295 207 282 320 278 288 313 304 137 9 333 134 111 106 169 136 137 158 157 146 133 112 84 133 126 250 340 332 266 231 219 220 199 192
320 322 325 324 324 325 324 321 313 283 227 225 272 166 246 272 285 345 314 335 353 325 183 142 68 94 154 92 79 70 51 266 267 236 157 133 112 91 206 335 237 254 335 220 159 76 106
325 325 326 326 326 326 323 320 314 245 255 136 242 285 299 277 236 304 325 314 279 284 77 75 37 35 105 71 66 359 357 196 237 219 187 165 105 114 203 213 317 157 228 153 157 227 189
326 324 326 325 329 327 328 332 331 228 254 268 214 202 297 282 256 288 314 357 58 318 346 66 45 27 73 88 93 212 210 212 157 101 116 122 109 146 175 237 227 244 245 262 121 281 172
331 323 325 324 328 322 334 335 339 319 261 207 262 202 218 277 264 221 258 234 324 179 148 27 41 47 49 94 143 188 243 258 197 158 151 135 151 213 209 247 284 224 197 81 137 230 124
326 330 323 320 321 323 328 330 334 339 323 274 254 190 168 243 304 301 238 176 333 71 141 249 74 357 54 121 204 155 165 355 354 79 154 160 168 170 200 200 248 66 73 169 201 55 129
321 323 324 321 312 321 320 326 324 327 327 312 266 199 172 215 252 291 268 276 203 188 140 14 159 123 170 95 240 93 176 321 0 202 89 198 182 176 183 211 237 352 118 95 119 121 121